sat.trackr.live / text

‹ back to catalog

STARLINK-30784

NORAD 58156 · 2023-166G

PAYLOAD ACTIVE UNKNOWN

§ Identity

Operator
Country
US
Launch date
2023-10-29
Launch site
AFWTR
Launch vehicle
Mass (kg)
RCS (m²)

Purposes: comms

External: N2YO · Heavens-Above · Gunter

§ Orbital elements

Epoch: 2026-05-24T15:27:13.739328Z

Period
94.11 min
Inclination
53.1606°
Eccentricity
0.0001111
Mean motion
15.30188792 rev/d
Perigee alt
474.5 km
Apogee alt
476.0 km
Semi-major
6,853.4 km
B*
4.5650e-6
RAAN
227.1258°
Arg perigee
60.6760°
Mean anomaly
299.4352°
Rev number
14,465

§ Raw data

STARLINK-307841 58156U 23166G   26144.64390902 -.00000224  00000+0  45650-5 0  99962 58156  53.1606 227.1258 0001111  60.6760 299.4352 15.30188792144652

JSON: /api/v1/satellites/58156 · /tle

For live sub-satellite position, see the globe view (requires WebGL).

§ Visibility from observer

Set your observer location to see the next 7 days of passes ≥ 10°. The values pass through the URL so the page stays shareable.

No JS? Fill the form by hand. The geolocation button needs JavaScript.